Regional Weather Roundup
Issued by NWS Cleveland, OH

Home | Current Version | Previous Version | Text Only | Print | Product List | Glossary Off
Versions: 1 2 3 4 5 6 7 8 9 10 11 12 13 14 15 16 17 18 19 20 21 22 23 24 25 26 27 28 29 30 31 32 33 34 35 36 37 38 39 40 41 42 43 44 45 46 47 48 49 50

000
ASUS41 KCLE 051210
RWRCLE
OHIO REGIONAL WEATHER ROUNDUP
NATIONAL WEATHER SERVICE WILMINGTON, OH
800 AM EDT WED AUG 05 2015

NOTE: "FAIR" INDICATES FEW OR NO CLOUDS BELOW 12,000 FEET WITH NO
SIGNIFICANT WEATHER AND/OR OBSTRUCTIONS TO VISIBILITY.

OHZ001>008-015>018-024>027-034-035-043-044-051300-
   NORTHWEST OHIO

CITY           SKY/WX    TMP DP  RH WIND       PRES   REMARKS
DEFIANCE       SUNNY     61  58  90 CALM      30.07R
FINDLAY        SUNNY     61  58  90 CALM      30.06R
TOLEDO EXPRESS SUNNY     60  56  86 CALM      30.06R
TOLEDO EXEC    SUNNY     64  56  75 CALM      30.06R
LIMA           SUNNY     63  60  90 CALM      30.07R
$$

OHZ009>014-019>023-028>033-038-089-051300-
   NORTHEAST OHIO

CITY           SKY/WX    TMP DP  RH WIND       PRES   REMARKS
CLE-HOPKINS    MOSUNNY   66  60  81 W5        30.04S
CLE-LAKEFRONT  MOSUNNY   72  58  61 NW15      30.01R
CUY CO. ARPT   MOSUNNY   70  63  78 NW8       30.02R
LORAIN-ELYRIA  SUNNY     62  59  90 W3        30.04S
ASHTABULA      SUNNY     64  61  90 CALM      30.02R
AKRON-CANTON   MOSUNNY   63  58  83 SW5       30.04R
WOOSTER        SUNNY     63  59  87 W3        30.06R
MANSFIELD      SUNNY     64  57  78 W5        30.07R
YOUNGSTOWN     MOSUNNY   63  59  87 CALM      30.02R
$$

OHZ042-051>053-060>062-070>072-077>081-051300-
  SOUTHWEST OHIO

CITY           SKY/WX    TMP DP  RH WIND       PRES   REMARKS
CINC-COVINGTON MOSUNNY   68  63  84 N3        30.06R
CINC-LUNKEN    SUNNY     66  65  96 CALM      30.06S
HAMILTON       SUNNY     67  64  90 CALM      30.07S
DAYTON         MOSUNNY   63  60  90 N3        30.08R
WRIGHT-PAT AFB SUNNY     63  61  94 NE5       30.07R
DAYTON GENERAL SUNNY     65  60  84 E5        30.06R
WILMINGTON     SUNNY     65  60  84 CALM      30.07R
$$

OHZ036-037-039>041-045>050-054>059-063>069-073>076-082>088-051300-
  CENTRAL AND SOUTHEAST OHIO

CITY           SKY/WX    TMP DP  RH WIND       PRES   REMARKS
COLUMBUS       MOSUNNY   65  60  84 N3        30.06R
OSU AIRPORT    SUNNY     65  59  81 N6        30.07R
BOLTON FIELD   SUNNY     64  61  88 CALM      30.07R
RICKENBACK AFB   N/A     62  60  92 CALM      30.06R
NEWARK         SUNNY     61  59  93 CALM      30.06R
MARION         SUNNY     63  58  83 CALM      30.07R
LANCASTER      SUNNY     62  59  90 CALM      30.07R
ZANESVILLE     SUNNY     61  58  90 CALM      30.06R
NEW PHILLY     FOG       58  58 100 CALM      30.06R VSB<1/4
$$


USA.gov is the U.S. government's official web portal to all federal, state and local government web resources and services.